Printer-friendly version

IAU Minor Planet Center

Minor Planet Center

MPEC 2005-G15 : 2005 GT

The following Minor Planet Electronic Circular may be linked-to from your own Web pages, but must not otherwise be redistributed electronically.


Read MPEC 2005-G14 Read MPEC 2005-G16


M.P.E.C. 2005-G15                                Issued 2005 Apr. 2, 23:54 UT

     The Minor Planet Electronic Circulars contain information on unusual
         minor planets and routine data on comets.  They are published
   on behalf of Commission 20 of the International Astronomical Union by the
          Minor Planet Center, Smithsonian Astrophysical Observatory,
                          Cambridge, MA 02138, U.S.A.

                  Supported in part by the Brinson Foundation
             Prepared using the Tamkin Foundation Computer Network

                              MPC@CFA.HARVARD.EDU
          URL http://cfa-www.harvard.edu/iau/mpc.html  ISSN 1523-6714

                                    2005 GT

Observations:
     K05G00T*tC2005 04 01.21569 13 16 16.32 -03 44 25.8          20.8 V EG015691
     K05G00T tC2005 04 01.23356 13 16 20.91 -03 47 50.9          20.9 V EG015691
     K05G00T tC2005 04 01.25134 13 16 25.36 -03 51 12.6          21.3 V EG015691
     K05G00T tC2005 04 01.33097 13 16 44.58 -04 06 15.5          20.9 V EG015691
     K05G00T tC2005 04 01.33366 13 16 45.30 -04 06 48.8          20.7 V EG015691
     K05G00T  C2005 04 01.87098 13 19 35.91 -05 52 27.4                 EG015246
     K05G00T  C2005 04 01.87134 13 19 36.09 -05 52 32.9                 EG015246
     K05G00T  C2005 04 01.87203 13 19 36.21 -05 52 40.1                 EG015246
     K05G00T  C2005 04 02.29946 13 21 52.79 -07 20 16.2          21.0 R EG015G96
     K05G00T  C2005 04 02.30956 13 21 55.53 -07 22 24.0          21.0 R EG015G96
     K05G00T  C2005 04 02.31777 13 21 57.78 -07 24 08.2          21.0 R EG015G96
     K05G00T  C2005 04 02.32720 13 22 00.40 -07 26 07.9          21.0 R EG015G96
     K05G00T  C2005 04 02.98105 13 25 48.23 -09 49 40.9                 EG015246
     K05G00T  C2005 04 02.98159 13 25 48.28 -09 49 48.3                 EG015246
     K05G00T  C2005 04 02.98192 13 25 48.42 -09 49 53.1                 EG015246
     K05G00T  C2005 04 02.98236 13 25 48.55 -09 49 59.9                 EG015246

Observer details:
246 Klet Observatory-KLENOT.  Observers J. Ticha, M. Tichy.  Measurer M. Tichy.
    1.06-m KLENOT Telescope + CCD.
691 Steward Observatory, Kitt Peak.  Observers A. S. Descour, J. Yu.  Measurer
    A. S. Descour.  0.9-m f/3 reflector + CCD.
G96 Mt. Lemmon Survey.  Observers E. Beshore, C. Casey.  Measurers
    E. C. Beshore, C. M. Casey, E. J. Christensen, G. J. Garradd, R. E. Hill,
    S. M. Larson, R. H. McNaught.  1.5-m reflector + CCD.

Orbital elements:
2005 GT
Epoch 2005 Mar. 31.0 TT = JDT 2453460.5                 MPC
M 345.69883              (2000.0)            P               Q
n   0.49554458     Peri.  208.71266     -0.74196224     +0.66976498
a   1.5815426      Node    13.46871     -0.58776401     -0.62819946
e   0.3583901      Incl.    7.42894     -0.32252984     -0.39595494
P   1.99           H   26.9           G   0.15
From 16 observations 2005 Apr. 1-2.

Ephemeris:
2005 GT                  a,e,i = 1.58, 0.36, 7                   q = 1.0147
Date    TT    R. A. (2000) Decl.     Delta      r     Elong.  Phase     V
2005 03 31    13 10.55   -00 09.6    0.0577   1.056   170.9     8.6    21.4
2005 04 01    13 15.11   -03 02.8    0.0546   1.053   171.5     8.1    21.3
2005 04 02    13 20.20   -06 16.2    0.0517   1.051   171.2     8.4    21.2
2005 04 03    13 25.91   -09 51.3    0.0490   1.048   169.7     9.8    21.1
2005 04 04    13 32.34   -13 49.0    0.0466   1.046   167.2    12.2    21.1
2005 04 05    13 39.64   -18 09.5    0.0445   1.043   163.9    15.5    21.1
2005 04 06    13 47.98   -22 51.6    0.0428   1.041   159.8    19.3    21.1
2005 04 07    13 57.57   -27 52.0    0.0414   1.039   155.3    23.7    21.2
2005 04 08    14 08.65   -33 05.6    0.0405   1.037   150.4    28.5    21.3
2005 04 09    14 21.55   -38 25.1    0.0400   1.035   145.2    33.5    21.4
2005 04 10    14 36.64   -43 41.6    0.0399   1.033   139.9    38.6    21.5
2005 04 11    14 54.35   -48 45.5    0.0403   1.031   134.7    43.7    21.7
2005 04 12    15 15.15   -53 27.6    0.0411   1.029   129.7    48.6    21.9
2005 04 13    15 39.46   -57 39.4    0.0423   1.028   124.9    53.1    22.0
2005 04 14    16 07.55   -61 14.7    0.0439   1.026   120.5    57.4    22.2
2005 04 15    16 39.31   -64 09.0    0.0458   1.025   116.5    61.2    22.4
2005 04 16    17 14.07   -66 20.6    0.0479   1.023   113.0    64.6    22.6
2005 04 17    17 50.49   -67 50.4    0.0503   1.022   109.8    67.6    22.8
2005 04 18    18 26.80   -68 42.4    0.0529   1.021   107.0    70.2    23.0
2005 04 19    19 01.26   -69 02.4    0.0556   1.020   104.5    72.5    23.2
2005 04 20    19 32.63   -68 57.8    0.0585   1.019   102.4    74.4    23.4

Timothy B. Spahr             (C) Copyright 2005 MPC           M.P.E.C. 2005-G15

Read MPEC 2005-G14 Read MPEC 2005-G16


Our Web policy. Index to the CBAT/MPC/ICQ pages.


Valid HTML 4.01!